GFSNIL_prec_precacc_027.txt.gz
Total_Precipitation_Accumulation
0.01 0.01 0.02 0.01 0.00 0.01 0.00 0.00 0.00 0.00 0.00 0.00 0.00 0.00 0.00 0.00 0.00 0.00 0.00 0.00 0.00 0.00
0.01 0.01 0.01 0.01 0.00 0.00 0.00 0.00 0.00 0.00 0.00 0.00 0.00 0.00 0.00 0.00 0.00 0.00 0.00 0.00 0.00 0.00
0.01 0.01 0.00 0.00 0.00 0.00 0.00 0.00 0.00 0.00 0.00 0.00 0.00 0.00 0.00 0.00 0.00 0.00 0.00 0.00 0.00 0.00
0.00 0.01 0.01 0.00 0.00 0.00 0.00 0.00 0.00 0.00 0.00 0.00 0.00 0.00 0.00 0.00 0.00 0.00 0.00 0.00 0.00 0.00
0.00 0.00 0.00 0.00 0.00 0.00 0.00 0.00 0.00 0.00 0.00 0.00 0.00 0.00 0.00 0.00 0.00 0.00 0.00 0.00 0.00 0.00
0.00 0.00 0.00 0.00 0.00 0.00 0.00 0.00 0.00 0.00 0.00 0.00 0.00 0.00 0.00 0.00 0.00 0.00 0.00 0.00 0.00 0.00
0.00 0.00 0.01 0.00 0.00 0.00 0.00 0.00 0.00 0.00 0.00 0.00 0.00 0.00 0.00 0.00 0.00 0.00 0.00 0.00 0.00 0.00
0.00 0.01 0.00 0.00 0.00 0.00 0.00 0.00 0.00 0.00 0.00 0.00 0.00 0.00 0.00 0.00 0.00 0.00 0.00 0.00 0.00 0.00
0.00 0.00 0.00 0.00 0.00 0.00 0.00 0.00 0.00 0.00 0.00 0.00 0.00 0.00 0.00 0.00 0.00 0.00 0.00 0.00 0.00 0.00
0.00 0.00 0.00 0.00 0.00 0.00 0.00 0.00 0.00 0.00 0.00 0.00 0.00 0.00 0.00 0.00 0.00 0.00 0.00 0.00 0.00 0.00
0.00 0.00 0.00 0.00 0.00 0.00 0.00 0.00 0.00 0.00 0.00 0.00 0.00 0.00 0.00 0.00 0.00 0.00 0.00 0.00 0.00 0.00
0.00 0.00 0.00 0.00 0.00 0.00 0.00 0.00 0.00 0.00 0.00 0.00 0.00 0.00 0.00 0.00 0.00 0.00 0.00 0.00 0.00 0.02
0.00 0.00 0.00 0.00 0.00 0.00 0.00 0.00 0.00 0.00 0.00 0.00 0.00 0.00 0.00 0.00 0.00 0.00 0.00 0.00 0.00 0.01
0.00 0.00 0.00 0.00 0.00 0.00 0.00 0.00 0.00 0.00 0.00 0.00 0.00 0.00 0.00 0.00 0.00 0.00 0.01 0.01 0.01 0.00

GFSNIL_prec_precacc_033.txt.gz
Total_Precipitation_Accumulation
0.01 0.02 0.04 0.03 0.03 0.05 0.05 0.03 0.02 0.02 0.01 0.01 0.00 0.00 0.00 0.00 0.00 0.00 0.00 0.00 0.00 0.00
0.01 0.02 0.03 0.03 0.03 0.03 0.02 0.02 0.02 0.02 0.01 0.01 0.00 0.00 0.00 0.00 0.00 0.00 0.00 0.00 0.00 0.00
0.03 0.02 0.01 0.02 0.02 0.02 0.01 0.00 0.01 0.02 0.01 0.01 0.00 0.00 0.00 0.00 0.00 0.00 0.00 0.00 0.00 0.00
0.01 0.02 0.01 0.01 0.01 0.01 0.01 0.01 0.01 0.01 0.01 0.00 0.00 0.00 0.00 0.00 0.00 0.00 0.00 0.00 0.00 0.00
0.01 0.01 0.01 0.01 0.01 0.01 0.02 0.02 0.01 0.02 0.00 0.00 0.00 0.00 0.00 0.00 0.00 0.00 0.00 0.00 0.00 0.00
0.01 0.01 0.00 0.01 0.02 0.02 0.02 0.02 0.01 0.00 0.00 0.00 0.00 0.00 0.00 0.00 0.00 0.00 0.00 0.00 0.00 0.00
0.01 0.01 0.02 0.02 0.03 0.02 0.01 0.01 0.01 0.00 0.00 0.00 0.00 0.00 0.00 0.00 0.00 0.00 0.00 0.00 0.00 0.00
0.00 0.01 0.01 0.02 0.02 0.02 0.01 0.01 0.00 0.01 0.01 0.00 0.00 0.00 0.00 0.00 0.00 0.00 0.00 0.00 0.00 0.00
0.00 0.01 0.02 0.01 0.02 0.06 0.10 0.07 0.05 0.04 0.02 0.00 0.01 0.02 0.01 0.00 0.00 0.00 0.00 0.00 0.00 0.00
0.02 0.02 0.04 0.09 0.09 0.05 0.07 0.09 0.10 0.09 0.08 0.07 0.03 0.00 0.00 0.00 0.00 0.00 0.00 0.00 0.00 0.00
0.14 0.21 0.16 0.14 0.18 0.28 0.27 0.17 0.07 0.04 0.01 0.00 0.00 0.00 0.00 0.00 0.00 0.00 0.00 0.00 0.00 0.00
0.47 0.43 0.43 0.31 0.23 0.18 0.10 0.04 0.01 0.00 0.00 0.00 0.00 0.00 0.00 0.00 0.00 0.00 0.00 0.00 0.00 0.02
0.47 0.38 0.29 0.20 0.10 0.01 0.00 0.00 0.00 0.00 0.00 0.00 0.00 0.00 0.00 0.00 0.00 0.00 0.00 0.00 0.00 0.01
0.19 0.06 0.00 0.00 0.00 0.00 0.00 0.00 0.00 0.00 0.00 0.00 0.00 0.00 0.00 0.00 0.00 0.00 0.01 0.01 0.01 0.00

GFSNIL_prec_precacc_036.txt.gz
Total_Precipitation_Accumulation
0.01 0.02 0.05 0.05 0.05 0.06 0.07 0.06 0.04 0.04 0.04 0.02 0.01 0.01 0.00 0.00 0.00 0.00 0.00 0.00 0.00 0.00
0.01 0.03 0.04 0.04 0.05 0.05 0.05 0.05 0.05 0.05 0.03 0.02 0.01 0.01 0.00 0.00 0.00 0.00 0.00 0.00 0.00 0.00
0.04 0.04 0.03 0.03 0.03 0.04 0.04 0.04 0.04 0.04 0.02 0.02 0.01 0.00 0.00 0.00 0.00 0.00 0.00 0.00 0.00 0.00
0.02 0.04 0.03 0.03 0.03 0.03 0.04 0.02 0.02 0.01 0.02 0.01 0.01 0.01 0.02 0.03 0.01 0.00 0.00 0.00 0.00 0.00
0.04 0.04 0.03 0.03 0.03 0.03 0.03 0.02 0.02 0.02 0.01 0.01 0.02 0.05 0.08 0.07 0.01 0.00 0.00 0.00 0.00 0.00
0.03 0.03 0.03 0.02 0.02 0.02 0.02 0.02 0.01 0.01 0.02 0.04 0.07 0.08 0.04 0.02 0.00 0.00 0.00 0.00 0.00 0.00
0.02 0.02 0.02 0.02 0.03 0.02 0.01 0.01 0.01 0.02 0.02 0.02 0.01 0.01 0.00 0.00 0.00 0.00 0.00 0.01 0.01 0.00
0.02 0.03 0.02 0.02 0.02 0.02 0.02 0.01 0.01 0.02 0.03 0.05 0.04 0.03 0.01 0.03 0.05 0.06 0.05 0.02 0.00 0.00
0.05 0.02 0.03 0.02 0.02 0.06 0.11 0.09 0.10 0.11 0.09 0.07 0.08 0.11 0.13 0.11 0.06 0.02 0.00 0.00 0.00 0.00
0.12 0.03 0.05 0.11 0.11 0.06 0.09 0.16 0.22 0.25 0.30 0.29 0.24 0.16 0.06 0.01 0.00 0.00 0.00 0.00 0.00 0.00
0.15 0.22 0.21 0.26 0.43 0.48 0.45 0.39 0.35 0.36 0.28 0.15 0.05 0.01 0.00 0.00 0.00 0.00 0.00 0.00 0.00 0.00
0.49 0.52 0.64 0.58 0.46 0.44 0.31 0.23 0.15 0.08 0.03 0.02 0.01 0.00 0.00 0.00 0.00 0.00 0.00 0.00 0.00 0.02
0.65 0.62 0.55 0.48 0.39 0.25 0.10 0.04 0.01 0.00 0.00 0.00 0.00 0.00 0.00 0.00 0.00 0.00 0.00 0.00 0.00 0.01
0.54 0.36 0.19 0.08 0.02 0.01 0.00 0.00 0.00 0.00 0.00 0.00 0.00 0.00 0.00 0.00 0.00 0.00 0.01 0.01 0.01 0.00

GFSNIL_prec_precacc_042.txt.gz
Total_Precipitation_Accumulation
0.01 0.02 0.05 0.07 0.06 0.07 0.10 0.09 0.08 0.09 0.10 0.08 0.07 0.06 0.06 0.06 0.04 0.02 0.02 0.01 0.00 0.00
0.01 0.03 0.04 0.04 0.05 0.05 0.05 0.07 0.08 0.10 0.12 0.12 0.09 0.06 0.05 0.04 0.02 0.01 0.01 0.01 0.01 0.01
0.04 0.04 0.03 0.03 0.03 0.04 0.05 0.06 0.07 0.08 0.08 0.08 0.06 0.04 0.03 0.02 0.01 0.01 0.01 0.01 0.01 0.01
0.02 0.04 0.03 0.03 0.03 0.04 0.05 0.03 0.04 0.03 0.04 0.04 0.04 0.03 0.03 0.03 0.04 0.04 0.04 0.03 0.03 0.04
0.04 0.04 0.04 0.04 0.04 0.05 0.06 0.05 0.05 0.04 0.03 0.02 0.03 0.05 0.09 0.13 0.13 0.11 0.10 0.10 0.11 0.11
0.03 0.03 0.04 0.05 0.05 0.05 0.05 0.04 0.03 0.02 0.03 0.04 0.08 0.09 0.07 0.05 0.03 0.03 0.04 0.04 0.04 0.05
0.03 0.03 0.04 0.04 0.05 0.05 0.03 0.03 0.02 0.02 0.03 0.02 0.02 0.02 0.03 0.04 0.04 0.05 0.06 0.07 0.08 0.12
0.08 0.08 0.05 0.03 0.03 0.04 0.03 0.03 0.02 0.02 0.04 0.05 0.06 0.08 0.10 0.14 0.20 0.27 0.31 0.33 0.31 0.25
0.09 0.06 0.09 0.05 0.03 0.07 0.12 0.11 0.12 0.12 0.10 0.09 0.12 0.26 0.30 0.31 0.31 0.29 0.25 0.20 0.12 0.07
0.18 0.07 0.10 0.23 0.17 0.11 0.11 0.20 0.26 0.28 0.37 0.46 0.49 0.51 0.42 0.31 0.22 0.17 0.13 0.09 0.08 0.05
0.32 0.35 0.26 0.35 0.65 0.68 0.61 0.57 0.52 0.55 0.50 0.43 0.39 0.33 0.22 0.13 0.08 0.06 0.05 0.03 0.02 0.01
0.72 0.81 0.85 0.72 0.71 0.94 0.76 0.67 0.54 0.39 0.32 0.24 0.17 0.11 0.06 0.03 0.02 0.01 0.00 0.00 0.00 0.02
0.71 0.74 0.75 0.75 0.63 0.47 0.31 0.31 0.29 0.19 0.10 0.07 0.05 0.04 0.01 0.00 0.00 0.00 0.00 0.00 0.00 0.01
0.70 0.61 0.40 0.33 0.26 0.15 0.10 0.08 0.06 0.04 0.02 0.01 0.00 0.00 0.00 0.00 0.00 0.00 0.01 0.01 0.01 0.00

GFSNIL_prec_precacc_045.txt.gz
Total_Precipitation_Accumulation
0.01 0.02 0.05 0.08 0.06 0.08 0.10 0.09 0.08 0.13 0.15 0.14 0.14 0.11 0.17 0.14 0.08 0.05 0.03 0.01 0.01 0.00
0.01 0.03 0.04 0.04 0.05 0.05 0.06 0.07 0.08 0.11 0.14 0.15 0.14 0.14 0.12 0.12 0.09 0.05 0.02 0.02 0.02 0.02
0.04 0.04 0.03 0.03 0.03 0.04 0.05 0.06 0.07 0.08 0.08 0.08 0.07 0.07 0.07 0.07 0.06 0.06 0.03 0.02 0.01 0.01
0.02 0.04 0.03 0.03 0.03 0.04 0.05 0.03 0.04 0.03 0.04 0.04 0.04 0.04 0.04 0.05 0.05 0.05 0.04 0.03 0.03 0.04
0.04 0.04 0.04 0.04 0.04 0.05 0.06 0.05 0.05 0.04 0.03 0.02 0.03 0.05 0.09 0.13 0.13 0.11 0.11 0.11 0.13 0.14
0.03 0.03 0.04 0.05 0.05 0.05 0.05 0.04 0.03 0.02 0.03 0.04 0.08 0.09 0.07 0.05 0.03 0.04 0.06 0.07 0.08 0.09
0.03 0.03 0.04 0.05 0.06 0.06 0.04 0.03 0.02 0.02 0.03 0.02 0.02 0.03 0.03 0.05 0.06 0.09 0.10 0.14 0.17 0.21
0.08 0.09 0.06 0.05 0.06 0.06 0.04 0.03 0.02 0.03 0.04 0.06 0.06 0.09 0.11 0.15 0.23 0.31 0.38 0.43 0.42 0.36
0.10 0.07 0.10 0.07 0.06 0.10 0.13 0.12 0.13 0.12 0.10 0.10 0.13 0.29 0.32 0.33 0.34 0.32 0.29 0.25 0.18 0.13
0.19 0.08 0.11 0.24 0.18 0.12 0.13 0.21 0.30 0.38 0.43 0.48 0.53 0.56 0.46 0.35 0.27 0.24 0.20 0.16 0.14 0.10
0.33 0.36 0.27 0.37 0.66 0.68 0.63 0.60 0.54 0.61 0.67 0.48 0.46 0.42 0.30 0.19 0.12 0.10 0.09 0.08 0.05 0.03
0.77 0.90 0.99 0.82 0.75 0.99 0.80 0.76 0.65 0.50 0.41 0.35 0.28 0.16 0.09 0.07 0.08 0.07 0.05 0.03 0.01 0.02
0.74 0.81 0.85 0.83 0.73 0.61 0.45 0.44 0.38 0.32 0.24 0.16 0.10 0.07 0.04 0.03 0.03 0.01 0.00 0.00 0.00 0.01
0.75 0.68 0.51 0.43 0.39 0.27 0.20 0.17 0.12 0.07 0.04 0.02 0.01 0.00 0.00 0.00 0.00 0.00 0.01 0.01 0.01 0.00

GFSNIL_prec_precacc_048.txt.gz
Total_Precipitation_Accumulation
0.01 0.02 0.05 0.08 0.06 0.08 0.10 0.09 0.08 0.14 0.16 0.16 0.16 0.14 0.21 0.20 0.15 0.12 0.08 0.05 0.03 0.01
0.01 0.03 0.04 0.04 0.05 0.05 0.06 0.08 0.08 0.11 0.14 0.16 0.16 0.16 0.15 0.16 0.16 0.13 0.10 0.07 0.04 0.03
0.04 0.04 0.03 0.03 0.03 0.04 0.05 0.06 0.07 0.08 0.08 0.08 0.08 0.08 0.08 0.08 0.10 0.11 0.09 0.07 0.04 0.03
0.02 0.04 0.03 0.03 0.03 0.04 0.05 0.03 0.04 0.03 0.04 0.04 0.04 0.04 0.04 0.05 0.06 0.07 0.06 0.06 0.06 0.07
0.04 0.04 0.04 0.04 0.04 0.05 0.06 0.05 0.05 0.04 0.03 0.02 0.03 0.05 0.09 0.13 0.13 0.12 0.11 0.12 0.14 0.16
0.03 0.03 0.04 0.05 0.05 0.05 0.05 0.04 0.03 0.02 0.03 0.04 0.08 0.09 0.07 0.05 0.03 0.04 0.06 0.08 0.10 0.14
0.03 0.03 0.04 0.05 0.06 0.06 0.04 0.04 0.04 0.03 0.03 0.03 0.02 0.03 0.03 0.05 0.07 0.09 0.12 0.15 0.20 0.27
0.08 0.09 0.06 0.05 0.06 0.07 0.06 0.05 0.05 0.04 0.05 0.06 0.07 0.09 0.11 0.15 0.23 0.32 0.40 0.46 0.47 0.43
0.10 0.07 0.10 0.07 0.07 0.12 0.16 0.17 0.18 0.16 0.12 0.12 0.15 0.31 0.33 0.34 0.35 0.35 0.34 0.32 0.26 0.21
0.19 0.08 0.11 0.24 0.18 0.14 0.17 0.30 0.33 0.42 0.48 0.53 0.58 0.63 0.50 0.40 0.30 0.27 0.24 0.21 0.18 0.14
0.33 0.36 0.28 0.43 0.73 0.77 0.70 0.81 0.60 0.62 0.78 0.76 0.57 0.48 0.38 0.24 0.15 0.13 0.11 0.09 0.06 0.03
0.77 0.92 1.03 0.94 0.86 1.11 0.86 0.79 0.70 0.54 0.45 0.42 0.36 0.24 0.14 0.10 0.09 0.07 0.05 0.03 0.01 0.02
0.74 0.83 0.89 0.89 0.84 0.74 0.59 0.57 0.46 0.37 0.32 0.23 0.13 0.08 0.05 0.04 0.03 0.02 0.01 0.00 0.00 0.01
0.75 0.69 0.53 0.46 0.44 0.31 0.23 0.21 0.15 0.08 0.05 0.02 0.01 0.00 0.00 0.00 0.00 0.00 0.01 0.01 0.01 0.00

GFSNIL_prec_precacc_054.txt.gz
Total_Precipitation_Accumulation
0.01 0.02 0.05 0.08 0.06 0.08 0.10 0.09 0.09 0.18 0.21 0.20 0.18 0.17 0.24 0.23 0.18 0.19 0.17 0.16 0.14 0.09
0.01 0.03 0.04 0.04 0.05 0.05 0.06 0.08 0.08 0.12 0.18 0.19 0.18 0.19 0.21 0.22 0.21 0.20 0.19 0.20 0.19 0.15
0.04 0.04 0.03 0.03 0.03 0.04 0.05 0.06 0.07 0.08 0.08 0.09 0.09 0.12 0.15 0.17 0.19 0.23 0.22 0.18 0.18 0.15
0.02 0.04 0.03 0.03 0.03 0.04 0.05 0.03 0.04 0.03 0.04 0.04 0.05 0.06 0.07 0.09 0.12 0.16 0.16 0.17 0.18 0.18
0.04 0.04 0.04 0.04 0.04 0.05 0.06 0.05 0.05 0.04 0.03 0.02 0.03 0.06 0.12 0.16 0.17 0.16 0.17 0.17 0.20 0.21
0.03 0.03 0.04 0.05 0.05 0.05 0.05 0.04 0.04 0.03 0.04 0.06 0.10 0.11 0.11 0.09 0.06 0.07 0.09 0.11 0.14 0.17
0.03 0.03 0.04 0.05 0.06 0.06 0.04 0.04 0.04 0.03 0.04 0.03 0.04 0.04 0.05 0.06 0.08 0.10 0.13 0.17 0.22 0.29
0.08 0.09 0.06 0.05 0.06 0.07 0.06 0.05 0.05 0.05 0.05 0.06 0.07 0.10 0.12 0.15 0.23 0.32 0.41 0.47 0.48 0.45
0.10 0.07 0.10 0.07 0.07 0.12 0.17 0.17 0.20 0.22 0.16 0.16 0.24 0.42 0.36 0.35 0.37 0.37 0.36 0.34 0.30 0.28
0.19 0.08 0.11 0.24 0.18 0.14 0.18 0.38 0.53 0.56 0.60 0.70 0.81 0.89 0.75 0.60 0.46 0.42 0.34 0.30 0.25 0.19
0.33 0.36 0.28 0.43 0.74 0.77 0.74 0.88 0.78 0.69 0.82 0.89 0.82 0.69 0.53 0.48 0.36 0.31 0.28 0.22 0.09 0.03
0.77 0.92 1.03 0.94 0.87 1.12 0.88 0.81 0.71 0.57 0.48 0.45 0.43 0.29 0.17 0.11 0.10 0.08 0.05 0.03 0.01 0.02
0.74 0.83 0.89 0.89 0.84 0.74 0.60 0.60 0.49 0.38 0.33 0.24 0.14 0.08 0.05 0.04 0.03 0.02 0.01 0.00 0.00 0.01
0.75 0.69 0.53 0.46 0.44 0.31 0.23 0.21 0.15 0.08 0.05 0.02 0.01 0.00 0.00 0.00 0.00 0.00 0.01 0.01 0.01 0.00

GFSNIL_prec_precacc_060.txt.gz
Total_Precipitation_Accumulation
0.01 0.02 0.05 0.08 0.06 0.08 0.10 0.09 0.09 0.18 0.21 0.20 0.19 0.17 0.24 0.24 0.19 0.24 0.28 0.32 0.37 0.29
0.01 0.03 0.04 0.04 0.05 0.05 0.06 0.08 0.08 0.12 0.18 0.19 0.18 0.20 0.21 0.23 0.22 0.22 0.25 0.30 0.32 0.36
0.04 0.04 0.03 0.03 0.03 0.04 0.05 0.06 0.07 0.08 0.08 0.09 0.09 0.12 0.16 0.18 0.20 0.25 0.25 0.23 0.25 0.26
0.02 0.04 0.03 0.03 0.03 0.04 0.05 0.03 0.04 0.03 0.04 0.04 0.05 0.06 0.07 0.09 0.12 0.16 0.17 0.18 0.20 0.23
0.04 0.04 0.04 0.04 0.04 0.05 0.06 0.05 0.05 0.04 0.03 0.02 0.03 0.06 0.12 0.16 0.18 0.18 0.18 0.19 0.23 0.24
0.03 0.03 0.04 0.05 0.05 0.05 0.05 0.04 0.04 0.03 0.04 0.06 0.10 0.11 0.11 0.09 0.07 0.08 0.11 0.14 0.17 0.21
0.03 0.03 0.04 0.05 0.06 0.06 0.04 0.04 0.04 0.03 0.04 0.03 0.04 0.04 0.05 0.06 0.08 0.10 0.13 0.17 0.22 0.30
0.08 0.09 0.06 0.05 0.06 0.07 0.06 0.05 0.05 0.05 0.05 0.06 0.07 0.10 0.12 0.15 0.23 0.32 0.41 0.48 0.48 0.46
0.10 0.07 0.10 0.07 0.07 0.12 0.17 0.17 0.20 0.22 0.16 0.16 0.24 0.42 0.36 0.35 0.37 0.37 0.36 0.35 0.31 0.30
0.19 0.08 0.11 0.24 0.18 0.14 0.18 0.38 0.53 0.56 0.60 0.70 0.82 0.90 0.75 0.60 0.46 0.43 0.37 0.33 0.29 0.22
0.33 0.36 0.28 0.43 0.74 0.77 0.74 0.88 0.78 0.69 0.82 0.89 0.82 0.69 0.53 0.48 0.36 0.31 0.28 0.24 0.12 0.05
0.77 0.92 1.03 0.94 0.87 1.12 0.88 0.81 0.71 0.57 0.48 0.45 0.43 0.29 0.17 0.11 0.10 0.08 0.05 0.03 0.01 0.02
0.74 0.83 0.89 0.89 0.84 0.74 0.60 0.60 0.49 0.38 0.33 0.24 0.14 0.08 0.05 0.04 0.03 0.02 0.01 0.00 0.00 0.01
0.75 0.69 0.53 0.46 0.44 0.31 0.23 0.21 0.15 0.08 0.05 0.02 0.01 0.00 0.00 0.00 0.00 0.00 0.01 0.01 0.01 0.00

GFSNIL_prec_precacc_066.txt.gz
Total_Precipitation_Accumulation
0.01 0.02 0.05 0.08 0.06 0.08 0.10 0.09 0.09 0.18 0.21 0.20 0.19 0.17 0.24 0.24 0.19 0.25 0.28 0.32 0.37 0.30
0.01 0.03 0.04 0.04 0.05 0.05 0.06 0.08 0.08 0.12 0.18 0.19 0.18 0.20 0.21 0.23 0.22 0.22 0.25 0.31 0.32 0.37
0.04 0.04 0.03 0.03 0.03 0.04 0.05 0.06 0.07 0.08 0.08 0.09 0.09 0.12 0.16 0.18 0.20 0.25 0.25 0.23 0.25 0.26
0.02 0.04 0.03 0.03 0.03 0.04 0.05 0.03 0.04 0.03 0.04 0.04 0.05 0.06 0.07 0.09 0.12 0.16 0.17 0.18 0.20 0.23
0.04 0.04 0.04 0.04 0.04 0.05 0.06 0.05 0.05 0.04 0.03 0.02 0.03 0.06 0.12 0.16 0.18 0.18 0.18 0.19 0.23 0.24
0.03 0.03 0.04 0.05 0.05 0.05 0.05 0.04 0.04 0.03 0.04 0.06 0.10 0.11 0.11 0.09 0.07 0.08 0.11 0.14 0.17 0.21
0.03 0.03 0.04 0.05 0.06 0.06 0.04 0.04 0.04 0.03 0.04 0.03 0.04 0.04 0.05 0.06 0.08 0.10 0.13 0.17 0.23 0.30
0.08 0.09 0.06 0.05 0.06 0.07 0.06 0.05 0.05 0.05 0.05 0.06 0.07 0.10 0.12 0.15 0.23 0.32 0.41 0.48 0.48 0.46
0.10 0.07 0.10 0.07 0.07 0.12 0.17 0.17 0.20 0.22 0.16 0.16 0.24 0.43 0.37 0.35 0.37 0.37 0.36 0.35 0.31 0.30
0.19 0.08 0.11 0.24 0.18 0.14 0.18 0.38 0.53 0.56 0.60 0.70 0.82 0.90 0.75 0.60 0.46 0.43 0.37 0.33 0.29 0.22
0.33 0.36 0.28 0.43 0.74 0.77 0.74 0.88 0.78 0.69 0.82 0.89 0.82 0.69 0.53 0.48 0.36 0.31 0.28 0.24 0.12 0.05
0.77 0.92 1.03 0.94 0.87 1.12 0.88 0.81 0.71 0.57 0.48 0.45 0.43 0.29 0.17 0.11 0.10 0.08 0.05 0.03 0.01 0.02
0.74 0.83 0.89 0.89 0.84 0.74 0.60 0.60 0.49 0.38 0.33 0.24 0.14 0.08 0.05 0.04 0.03 0.02 0.01 0.00 0.00 0.01
0.75 0.69 0.53 0.46 0.44 0.31 0.23 0.21 0.15 0.08 0.05 0.02 0.01 0.00 0.00 0.00 0.00 0.00 0.01 0.01 0.01 0.00

GFSNIL_prec_precacc_072.txt.gz
Total_Precipitation_Accumulation
0.01 0.02 0.05 0.08 0.06 0.08 0.10 0.09 0.09 0.18 0.21 0.20 0.19 0.17 0.24 0.24 0.20 0.25 0.29 0.34 0.39 0.32
0.01 0.03 0.04 0.04 0.05 0.05 0.06 0.08 0.08 0.12 0.18 0.19 0.18 0.20 0.21 0.23 0.22 0.22 0.25 0.31 0.33 0.37
0.04 0.04 0.03 0.03 0.03 0.04 0.05 0.06 0.07 0.08 0.08 0.09 0.09 0.12 0.16 0.18 0.20 0.25 0.25 0.23 0.25 0.26
0.02 0.04 0.03 0.03 0.03 0.04 0.05 0.03 0.04 0.03 0.04 0.04 0.05 0.06 0.07 0.09 0.12 0.16 0.17 0.18 0.20 0.23
0.04 0.04 0.04 0.04 0.04 0.05 0.06 0.05 0.05 0.04 0.03 0.02 0.03 0.06 0.12 0.16 0.18 0.18 0.18 0.19 0.23 0.24
0.03 0.03 0.04 0.05 0.05 0.05 0.05 0.04 0.04 0.03 0.04 0.06 0.10 0.11 0.11 0.09 0.07 0.08 0.11 0.14 0.17 0.21
0.03 0.03 0.04 0.05 0.06 0.06 0.04 0.04 0.04 0.03 0.04 0.03 0.04 0.04 0.05 0.06 0.08 0.10 0.13 0.17 0.23 0.30
0.08 0.09 0.06 0.05 0.06 0.07 0.06 0.05 0.05 0.05 0.05 0.06 0.07 0.10 0.12 0.15 0.23 0.32 0.41 0.48 0.48 0.46
0.10 0.07 0.10 0.07 0.07 0.12 0.17 0.17 0.20 0.22 0.16 0.16 0.24 0.43 0.37 0.35 0.37 0.37 0.36 0.35 0.31 0.30
0.19 0.08 0.11 0.24 0.18 0.14 0.18 0.38 0.53 0.56 0.60 0.70 0.82 0.90 0.75 0.60 0.46 0.43 0.37 0.33 0.29 0.22
0.33 0.36 0.28 0.43 0.74 0.77 0.74 0.88 0.78 0.69 0.82 0.89 0.82 0.69 0.53 0.48 0.36 0.31 0.28 0.24 0.12 0.05
0.77 0.92 1.03 0.94 0.87 1.12 0.88 0.81 0.71 0.57 0.48 0.45 0.43 0.29 0.17 0.11 0.10 0.08 0.05 0.03 0.01 0.02
0.74 0.83 0.89 0.89 0.84 0.74 0.60 0.60 0.49 0.38 0.33 0.24 0.14 0.08 0.05 0.04 0.03 0.02 0.01 0.00 0.00 0.01
0.75 0.69 0.53 0.46 0.44 0.31 0.23 0.21 0.15 0.08 0.05 0.02 0.01 0.00 0.00 0.00 0.00 0.00 0.01 0.01 0.01 0.00

GFSNIL_prec_precacc_075.txt.gz
Total_Precipitation_Accumulation
0.01 0.02 0.05 0.08 0.06 0.08 0.10 0.09 0.09 0.18 0.21 0.20 0.19 0.17 0.24 0.24 0.20 0.26 0.29 0.34 0.39 0.32
0.01 0.03 0.04 0.04 0.05 0.05 0.06 0.08 0.08 0.12 0.18 0.19 0.18 0.20 0.21 0.23 0.22 0.22 0.25 0.31 0.33 0.37
0.04 0.04 0.03 0.03 0.03 0.04 0.05 0.06 0.07 0.08 0.08 0.09 0.09 0.12 0.16 0.18 0.20 0.25 0.25 0.23 0.25 0.26
0.02 0.04 0.03 0.03 0.03 0.04 0.05 0.03 0.04 0.03 0.04 0.04 0.05 0.06 0.07 0.09 0.12 0.16 0.17 0.18 0.20 0.23
0.04 0.04 0.04 0.04 0.04 0.05 0.06 0.05 0.05 0.04 0.03 0.02 0.03 0.06 0.12 0.16 0.18 0.18 0.18 0.19 0.23 0.24
0.03 0.03 0.04 0.05 0.05 0.05 0.05 0.04 0.04 0.03 0.04 0.06 0.10 0.11 0.11 0.09 0.07 0.08 0.11 0.14 0.17 0.21
0.03 0.03 0.04 0.05 0.06 0.06 0.04 0.04 0.04 0.03 0.04 0.03 0.04 0.04 0.05 0.06 0.08 0.10 0.13 0.17 0.23 0.30
0.08 0.09 0.06 0.05 0.06 0.07 0.06 0.05 0.05 0.05 0.05 0.06 0.07 0.10 0.12 0.15 0.23 0.32 0.41 0.48 0.48 0.46
0.10 0.07 0.10 0.07 0.07 0.12 0.17 0.17 0.20 0.22 0.16 0.16 0.24 0.43 0.37 0.35 0.37 0.37 0.36 0.35 0.31 0.30
0.19 0.08 0.11 0.24 0.18 0.14 0.18 0.38 0.53 0.56 0.60 0.70 0.82 0.90 0.75 0.60 0.46 0.43 0.37 0.33 0.29 0.22
0.33 0.36 0.28 0.43 0.74 0.77 0.74 0.88 0.78 0.69 0.82 0.89 0.82 0.69 0.53 0.48 0.36 0.31 0.28 0.24 0.12 0.05
0.77 0.92 1.03 0.94 0.87 1.12 0.88 0.81 0.71 0.57 0.48 0.45 0.43 0.29 0.17 0.11 0.10 0.08 0.05 0.03 0.01 0.02
0.74 0.83 0.89 0.89 0.84 0.74 0.60 0.60 0.49 0.38 0.33 0.24 0.14 0.08 0.05 0.04 0.03 0.02 0.01 0.00 0.00 0.01
0.75 0.69 0.53 0.46 0.44 0.31 0.23 0.21 0.15 0.08 0.05 0.02 0.01 0.00 0.00 0.00 0.00 0.00 0.01 0.01 0.01 0.00